FW7718 Weather Reports


Display with metric or nautical units.
time (UTC)temp
F
wind
direction
speed
MPH
gust
MPH
rain 1hr
in
rain 24hr
in
rain mn
in
humidity
%
barometer
mb
20260506194629 56 5 5.0 6.0 0.00 0.25 0.25 90 1015.3
20260506194125 56 358 5.0 6.0 0.00 0.25 0.25 90 1015.5
20260506193623 56 2 5.0 6.0 0.00 0.25 0.25 90 1015.9
20260506193120 56 335 5.0 6.0 0.00 0.25 0.25 90 1016.0
20260506192617 56 4 4.0 6.0 0.00 0.25 0.25 90 1015.9
20260506192112 56 48 3.0 3.0 0.00 0.25 0.25 90 1015.9
20260506191609 56 55 3.0 3.0 0.00 0.25 0.25 90 1015.9
20260506191104 56 358 3.0 3.0 0.00 0.25 0.25 90 1016.0
20260506190602 56 35 3.0 3.0 0.00 0.25 0.25 89 1015.7
20260506190059 56 30 3.0 5.0 0.00 0.25 0.25 89 1015.7
20260506185556 56 48 2.0 2.0 0.00 0.25 0.25 89 1015.6
20260506185053 56 58 3.0 5.0 0.00 0.25 0.25 89 1015.6
20260506184550 56 25 3.0 5.0 0.00 0.25 0.25 90 1015.1
20260506184047 56 66 2.0 3.0 0.00 0.25 0.25 90 1014.7
20260506183543 56 11 3.0 6.0 0.00 0.25 0.25 90 1014.3
20260506183040 56 24 6.0 10.0 0.00 0.25 0.25 90 1013.8
20260506182537 56 358 8.0 10.0 0.00 0.25 0.25 91 1013.8
20260506182034 55 23 8.0 10.0 0.00 0.25 0.25 90 1013.6
20260506181532 56 35 7.0 8.0 0.00 0.25 0.25 91 1013.7
20260506181029 55 55 6.0 8.0 0.00 0.25 0.25 92 1014.3
20260506180525 55 37 7.0 8.0 0.00 0.25 0.25 91 1014.5
20260506180022 56 39 5.0 9.0 0.00 0.25 0.25 91 1014.9
20260506175519 55 79 6.0 7.0 0.00 0.25 0.25 92 1015.0
20260506175015 55 43 3.0 5.0 0.00 0.25 0.25 91 1015.1
20260506174514 55 45 4.0 5.0 0.00 0.25 0.25 92 1015.6
20260506174009 55 29 3.0 3.0 0.00 0.25 0.25 92 1016.0
20260506173507 55 1 5.0 6.0 0.00 0.25 0.25 92 1016.5
20260506173004 55 29 4.0 5.0 0.00 0.25 0.25 92 1015.9
20260506172501 55 2 5.0 7.0 0.00 0.25 0.25 92 1015.7
20260506171952 55 22 5.0 6.0 0.00 0.25 0.25 93 1015.5
20260506171449 55 22 4.0 5.0 0.00 0.25 0.25 92 1016.0
20260506170948 54 13 4.0 5.0 0.00 0.25 0.25 92 1015.8
20260506170443 54 21 5.0 6.0 0.00 0.25 0.25 92 1016.0
20260506165942 54 5 6.0 8.0 0.00 0.25 0.25 92 1015.8
20260506165440 54 344 5.0 6.0 0.00 0.25 0.25 92 1015.6
20260506164936 55 354 2.0 5.0 0.00 0.25 0.25 93 1016.0
20260506164433 54 60 2.0 3.0 0.00 0.25 0.25 93 1016.2
20260506163931 54 42 4.0 5.0 0.00 0.25 0.25 93 1015.9
20260506163425 54 50 7.0 10.0 0.00 0.25 0.25 93 1015.5
20260506162920 54 81 7.0 9.0 0.00 0.25 0.25 93 1015.2
20260506162418 54 56 7.0 9.0 0.07 0.25 0.25 93 1015.6
20260506161915 53 40 5.0 6.0 0.19 0.25 0.25 93 1016.0
20260506161413 53 87 5.0 6.0 0.28 0.24 0.24 92 1016.0
20260506160905 53 64 5.0 8.0 0.42 0.21 0.21 90 1017.1
20260506160401 54 320 11.0 14.0 0.94 0.18 0.18 88 1017.6
20260506155900 54 305 8.0 9.0 0.85 0.14 0.14 86 1018.5
20260506155356 55 337 3.0 3.0 0.14 0.02 0.02 85 1017.7
20260506153513 55 52 3.0 5.0 0.00 0.00 0.00 85 1016.2
20260506153011 55 7 4.0 5.0 0.00 0.00 0.00 84 1016.0
20260506152508 55 36 4.0 6.0 0.00 0.00 0.00 84 1015.9
20260506152006 55 356 9.0 11.0 0.00 0.00 0.00 84 1015.4
20260506151503 55 13 6.0 8.0 0.00 0.00 0.00 83 1015.6
20260506151000 55 352 8.0 9.0 0.00 0.00 0.00 83 1015.3
20260506150456 55 0 7.0 8.0 0.00 0.00 0.00 83 1016.0
20260506145953 55 353 5.0 9.0 0.00 0.00 0.00 83 1016.5
20260506145449 55 340 5.0 7.0 0.00 0.00 0.00 83 1016.3
20260506144947 55 7 7.0 8.0 0.00 0.00 0.00 83 1015.9
20260506144444 55 355 7.0 8.0 0.00 0.00 0.00 83 1015.9
20260506143942 55 354 7.0 9.0 0.00 0.00 0.00 83 1015.5
20260506143438 55 15 4.0 6.0 0.00 0.00 0.00 84 1015.7
20260506142937 54 351 7.0 8.0 0.00 0.00 0.00 84 1015.6
20260506142435 54 49 7.0 8.0 0.00 0.00 0.00 84 1015.4
20260506141932 54 5 4.0 6.0 0.00 0.00 0.00 85 1015.1
20260506141430 54 351 9.0 10.0 0.00 0.00 0.00 85 1015.2
20260506140929 54 21 5.0 8.0 0.00 0.00 0.00 85 1014.9
20260506140425 54 51 4.0 5.0 0.00 0.00 0.00 85 1015.1
20260506135922 53 38 5.0 7.0 0.00 0.00 0.00 86 1015.0
20260506135419 53 355 9.0 10.0 0.00 0.00 0.00 86 1014.9
20260506134915 53 36 7.0 9.0 0.00 0.00 0.00 86 1014.7
20260506134411 53 5 6.0 7.0 0.00 0.00 0.00 86 1014.9
20260506133908 53 334 5.0 6.0 0.00 0.00 0.00 87 1014.8
20260506133405 53 347 9.0 10.0 0.00 0.00 0.00 87 1014.8
20260506132902 52 5 8.0 9.0 0.00 0.00 0.00 88 1014.6
20260506132359 52 33 6.0 8.0 0.00 0.00 0.00 88 1014.6
20260506131857 52 353 4.0 7.0 0.00 0.00 0.00 89 1014.6
20260506131353 52 355 6.0 8.0 0.00 0.00 0.00 89 1014.9
20260506130850 52 7 5.0 7.0 0.00 0.00 0.00 89 1014.9
20260506130346 52 29 5.0 6.0 0.00 0.00 0.00 89 1014.8
20260506125845 52 359 5.0 8.0 0.00 0.00 0.00 89 1014.7
20260506125343 52 356 5.0 8.0 0.00 0.00 0.00 89 1014.7
20260506124841 52 356 6.0 7.0 0.00 0.00 0.00 89 1014.6
20260506124337 52 347 5.0 6.0 0.00 0.00 0.00 89 1014.6
20260506123835 52 9 6.0 7.0 0.00 0.00 0.00 89 1014.2
20260506123333 52 358 6.0 8.0 0.00 0.00 0.00 89 1014.2
20260506122830 52 351 9.0 11.0 0.00 0.00 0.00 88 1014.2
20260506122327 52 1 7.0 8.0 0.00 0.00 0.00 88 1014.4
20260506121825 52 1 4.0 6.0 0.00 0.00 0.00 88 1014.4
20260506121322 52 267 7.0 8.0 0.00 0.00 0.00 87 1014.1
20260506120819 52 352 4.0 6.0 0.00 0.00 0.00 87 1013.8
20260506120317 52 23 6.0 7.0 0.00 0.00 0.00 86 1014.1
20260506115814 52 320 8.0 11.0 0.00 0.00 0.00 86 1014.1
20260506115313 53 341 5.0 7.0 0.00 0.00 0.00 85 1013.6
20260506114810 53 17 7.0 9.0 0.00 0.00 0.00 84 1013.4
20260506114308 53 17 5.0 7.0 0.00 0.00 0.00 84 1013.6
20260506113806 53 310 8.0 10.0 0.00 0.00 0.00 83 1013.8
20260506113303 53 357 9.0 11.0 0.00 0.00 0.00 83 1013.3
20260506112759 53 352 9.0 11.0 0.00 0.00 0.00 83 1013.4
20260506112257 53 358 8.0 13.0 0.00 0.00 0.00 83 1013.3
20260506111754 53 19 5.0 6.0 0.00 0.00 0.00 83 1013.1
20260506111252 53 345 8.0 9.0 0.00 0.00 0.00 82 1013.2
20260506110749 53 5 8.0 13.0 0.00 0.00 0.00 82 1013.1
20260506110247 54 352 5.0 7.0 0.00 0.00 0.00 81 1012.9
20260506105743 54 329 5.0 6.0 0.00 0.00 0.00 81 1012.7
20260506105240 54 7 7.0 8.0 0.00 0.00 0.00 81 1012.6
20260506104738 54 7 5.0 7.0 0.00 0.00 0.00 80 1012.6
20260506104235 54 14 5.0 8.0 0.00 0.00 0.00 80 1012.3
20260506103732 54 313 5.0 7.0 0.00 0.00 0.00 80 1012.3
20260506103229 54 333 7.0 8.0 0.00 0.00 0.00 80 1012.5
20260506102727 54 20 7.0 8.0 0.00 0.00 0.00 80 1012.3
20260506102225 54 23 9.0 10.0 0.00 0.00 0.00 80 1012.2
20260506101721 54 27 4.0 5.0 0.00 0.00 0.00 80 1012.2
20260506101218 54 8 7.0 9.0 0.00 0.00 0.00 79 1012.0
20260506100716 54 356 6.0 7.0 0.00 0.00 0.00 79 1012.1
20260506100214 54 32 6.0 8.0 0.00 0.00 0.00 79 1012.0
20260506095712 55 354 6.0 7.0 0.00 0.00 0.00 79 1012.3
20260506095209 55 355 6.0 8.0 0.00 0.00 0.00 79 1012.2
20260506094706 55 345 7.0 8.0 0.00 0.00 0.00 78 1012.0
20260506094204 55 25 4.0 6.0 0.00 0.00 0.00 79 1011.9
20260506093703 55 336 3.0 5.0 0.00 0.00 0.00 78 1012.1
20260506093159 55 6 4.0 5.0 0.00 0.00 0.00 78 1012.0
20260506092656 55 353 7.0 9.0 0.00 0.00 0.00 77 1011.8
20260506092154 55 323 4.0 6.0 0.00 0.00 0.00 77 1011.8
20260506091652 55 342 5.0 7.0 0.00 0.00 0.00 77 1011.6
20260506091149 55 342 7.0 8.0 0.00 0.00 0.00 77 1011.6
20260506090647 55 8 3.0 3.0 0.00 0.00 0.00 77 1011.4
20260506090143 56 2 4.0 6.0 0.00 0.00 0.00 77 1011.2
20260506085640 56 341 6.0 8.0 0.00 0.00 0.00 76 1011.4
20260506085136 56 7 3.0 6.0 0.00 0.00 0.00 77 1011.5
20260506084633 56 60 3.0 5.0 0.00 0.00 0.00 78 1011.4
20260506084130 56 1 3.0 3.0 0.00 0.00 0.00 78 1011.3
20260506083626 56 22 5.0 6.0 0.00 0.00 0.00 77 1011.4
20260506083124 56 37 4.0 5.0 0.00 0.00 0.00 77 1011.2
20260506082621 56 357 4.0 5.0 0.00 0.00 0.00 77 1011.2
20260506082116 56 16 2.0 2.0 0.00 0.00 0.00 77 1011.3
20260506081615 56 1 3.0 5.0 0.00 0.00 0.00 77 1011.1
20260506081112 56 4 5.0 6.0 0.00 0.00 0.00 78 1011.2
20260506080610 56 7 2.0 5.0 0.00 0.00 0.00 77 1011.1
20260506080106 56 53 1.0 2.0 0.00 0.00 0.00 77 1011.3
20260506073050 57 1 5.0 6.0 0.00 0.00 0.00 77 1011.5
20260506072547 57 339 6.0 9.0 0.00 0.00 0.00 78 1011.3
20260506072044 57 8 7.0 8.0 0.00 0.00 0.00 77 1011.2
20260506071542 57 344 7.0 9.0 0.00 0.00 0.00 77 1011.3
20260506071039 57 356 6.0 8.0 0.00 0.00 0.00 78 1011.6
20260506070536 57 18 4.0 6.0 0.00 0.00 0.00 78 1011.5
20260506062514 57 8 6.0 7.0 0.00 0.00 0.00 79 1010.9
20260506062010 57 10 6.0 7.0 0.00 0.00 0.00 78 1011.4
20260506061506 57 2 7.0 7.0 0.00 0.00 0.00 78 1011.3
20260506061004 57 27 7.0 8.0 0.00 0.00 0.00 79 1011.3
20260506060502 57 3 7.0 8.0 0.00 0.00 0.00 79 1011.2
20260506050931 60 358 5.0 6.0 0.00 0.00 0.00 80 1010.9
20260506050429 60 359 8.0 10.0 0.00 0.00 0.00 80 1010.7
20260506044919 60 3 6.0 8.0 0.00 0.00 0.00 80 1011.0
20260506044417 60 4 9.0 13.0 0.00 0.00 0.00 80 1010.9
20260506043914 60 2 7.0 9.0 0.00 0.00 0.00 80 1011.0
20260506043411 60 2 6.0 7.0 0.00 0.00 0.00 81 1010.5
20260506042909 60 331 6.0 8.0 0.00 0.00 0.00 81 1010.7
20260506042408 61 349 4.0 5.0 0.00 0.00 0.00 81 1010.3
20260506041906 61 357 5.0 6.0 0.00 0.00 0.00 81 1010.3
20260506041403 61 350 7.0 9.0 0.00 0.00 0.00 81 1010.4
20260506040900 61 10 9.0 10.0 0.00 0.00 0.00 80 1010.6
20260506040358 61 39 9.0 10.0 0.00 0.00 0.00 80 1010.3
20260506035853 62 349 7.0 10.0 0.00 0.00 0.00 79 1010.4
20260506035351 62 6 7.0 11.0 0.00 0.00 0.00 79 1010.2
20260506034848 62 341 11.0 14.0 0.00 0.00 0.00 80 1010.5
20260506034345 62 11 4.0 7.0 0.00 0.00 0.00 80 1010.3
20260506033842 62 326 7.0 9.0 0.00 0.00 0.00 79 1010.0
20260506033339 63 350 12.0 16.0 0.00 0.00 0.00 79 1009.9
20260506032836 63 349 8.0 10.0 0.00 0.00 0.00 79 1009.6
20260506032333 64 322 5.0 7.0 0.00 0.00 0.00 78 1009.8
20260506031830 64 342 4.0 5.0 0.00 0.00 0.00 78 1009.6
20260506031327 65 17 7.0 10.0 0.00 0.00 0.00 78 1009.7
20260506030825 66 2 9.0 11.0 0.00 0.00 0.00 77 1009.7
20260506030323 67 345 9.0 13.0 0.00 0.00 0.00 77 1009.5
20260506025819 68 34 10.0 14.0 0.00 0.00 0.00 77 1008.9
20260506025315 69 356 8.0 10.0 0.00 0.00 0.00 77 1008.8
20260506024813 69 355 10.0 14.0 0.00 0.00 0.00 76 1008.8
20260506024309 70 19 8.0 9.0 0.00 0.00 0.00 77 1008.4
20260506023805 70 16 3.0 5.0 0.00 0.00 0.00 77 1008.6
20260506023303 70 334 3.0 3.0 0.00 0.00 0.00 78 1008.5
20260506022759 70 334 8.0 10.0 0.00 0.00 0.00 78 1007.9
20260506022257 71 31 3.0 5.0 0.00 0.00 0.00 77 1008.0
20260506021755 71 34 7.0 8.0 0.00 0.00 0.00 77 1008.1
20260506021252 71 324 1.0 2.0 0.00 0.00 0.00 77 1007.8
20260506020748 71 353 5.0 7.0 0.00 0.00 0.00 76 1007.9
20260506020247 72 340 6.0 8.0 0.00 0.00 0.00 76 1007.8
20260506015744 72 8 5.0 6.0 0.00 0.00 0.00 75 1007.7
20260506015241 73 350 4.0 5.0 0.00 0.00 0.00 75 1007.7
20260506014738 73 353 7.0 8.0 0.00 0.00 0.00 74 1007.6
20260506014234 74 23 7.0 9.0 0.00 0.00 0.00 74 1007.9
20260506013732 74 328 3.0 3.0 0.00 0.00 0.00 74 1007.6
20260506013229 74 4 2.0 2.0 0.00 0.00 0.00 73 1007.5
20260506012725 74 17 3.0 3.0 0.00 0.00 0.00 73 1007.0
20260506012222 74 8 2.0 2.0 0.00 0.00 0.00 73 1007.4
20260506011719 75 48 1.0 1.0 0.00 0.00 0.00 72 1006.8
20260506011215 75 13 3.0 3.0 0.00 0.00 0.00 71 1007.4
20260506010714 75 35 3.0 3.0 0.00 0.00 0.00 70 1007.0
20260506010211 76 358 4.0 5.0 0.00 0.00 0.00 69 1007.1
20260506005708 77 359 6.0 8.0 0.00 0.00 0.00 67 1007.1
20260506005205 78 15 2.0 2.0 0.00 0.00 0.00 65 1007.3
20260506004701 78 297 3.0 5.0 0.00 0.00 0.00 66 1007.3
20260506004159 79 84 0.0 0.0 0.00 0.00 0.00 68 1006.9
20260506003654 80 42 1.0 1.0 0.00 0.00 0.00 77 1006.9
20260506003151 80 296 3.0 5.0 0.00 0.00 0.00 78 1007.0
20260506002647 80 248 4.0 5.0 0.00 0.00 0.00 77 1006.9
20260506002143 80 198 3.0 5.0 0.00 0.00 0.00 76 1006.5
20260506001639 80 194 3.0 3.0 0.00 0.00 0.00 75 1006.4
20260506001137 80 181 3.0 3.0 0.00 0.00 0.00 75 1006.1
20260506000633 81 180 5.0 6.0 0.00 0.00 0.00 75 1006.0
20260506000131 81 165 5.0 6.0 0.00 0.00 0.00 74 1005.9
20260505235629 81 180 5.0 6.0 0.00 0.00 0.00 74 1006.0
20260505235126 81 169 3.0 5.0 0.00 0.00 0.00 74 1006.1
20260505234622 82 188 5.0 6.0 0.00 0.00 0.00 73 1006.0
20260505234119 82 195 9.0 9.0 0.00 0.00 0.00 72 1006.0
20260505233617 82 149 6.0 7.0 0.00 0.00 0.00 72 1005.8
20260505233114 82 174 8.0 9.0 0.00 0.00 0.00 71 1005.9
20260505232612 82 195 6.0 7.0 0.00 0.00 0.00 71 1006.0
20260505232109 82 199 8.0 9.0 0.00 0.00 0.00 71 1005.8
20260505231606 82 165 8.0 8.0 0.00 0.00 0.00 70 1005.7
20260505231105 83 200 6.0 8.0 0.00 0.00 0.00 70 1005.6
20260505230602 83 216 8.0 10.0 0.00 0.00 0.00 69 1005.5
20260505230058 84 163 9.0 13.0 0.00 0.00 0.00 68 1005.8
20260505225555 84 183 9.0 10.0 0.00 0.00 0.00 67 1005.6
20260505225051 85 203 9.0 10.0 0.00 0.00 0.00 65 1005.8
20260505224548 85 205 11.0 13.0 0.00 0.00 0.00 66 1005.4
20260505224045 86 178 9.0 9.0 0.00 0.00 0.00 65 1005.4
20260505223542 86 197 8.0 9.0 0.00 0.00 0.00 65 1005.2
20260505223038 85 212 9.0 9.0 0.00 0.00 0.00 65 1005.2
20260505222535 84 205 7.0 10.0 0.00 0.00 0.00 68 1005.4
20260505222031 85 209 7.0 8.0 0.00 0.00 0.00 66 1005.6
20260505221528 85 203 9.0 9.0 0.00 0.00 0.00 66 1005.5
20260505221025 85 179 7.0 9.0 0.00 0.00 0.00 65 1005.5
20260505220522 85 191 8.0 10.0 0.00 0.00 0.00 65 1005.5
20260505220020 84 217 8.0 9.0 0.00 0.00 0.00 66 1005.4
20260505215518 84 207 10.0 11.0 0.00 0.00 0.00 66 1005.5
20260505215015 85 198 11.0 13.0 0.00 0.00 0.00 65 1005.5
20260505214513 85 199 6.0 7.0 0.00 0.00 0.00 66 1005.7
20260505214010 86 212 9.0 10.0 0.00 0.00 0.00 64 1005.6
20260505213508 86 218 10.0 13.0 0.00 0.00 0.00 64 1005.6
20260505213004 86 183 11.0 13.0 0.00 0.00 0.00 63 1005.8
20260505212500 85 204 10.0 11.0 0.00 0.00 0.00 65 1005.7
20260505211957 86 207 9.0 10.0 0.00 0.00 0.00 62 1005.6
20260505211454 86 229 11.0 11.0 0.00 0.00 0.00 64 1005.7
20260505210951 85 194 14.0 18.0 0.00 0.00 0.00 62 1005.7
20260505210448 85 217 9.0 9.0 0.00 0.00 0.00 63 1005.8
20260505205944 85 243 11.0 13.0 0.00 0.00 0.00 64 1005.9
20260505205443 85 225 7.0 8.0 0.00 0.00 0.00 65 1006.2
20260505204939 84 201 12.0 16.0 0.00 0.00 0.00 65 1006.3
20260505204438 85 212 12.0 16.0 0.00 0.00 0.00 64 1006.3
20260505203934 85 192 8.0 10.0 0.00 0.00 0.00 65 1006.3
20260505203431 84 186 9.0 10.0 0.00 0.00 0.00 68 1006.1
20260505202927 84 223 11.0 14.0 0.00 0.00 0.00 66 1006.1
20260505202424 84 219 11.0 13.0 0.00 0.00 0.00 66 1006.0
20260505201920 84 207 9.0 11.0 0.00 0.00 0.00 67 1006.0
20260505201417 83 263 11.0 11.0 0.00 0.00 0.00 67 1006.2
20260505200915 83 199 13.0 15.0 0.00 0.00 0.00 66 1006.5
20260505200412 83 218 10.0 11.0 0.00 0.00 0.00 66 1006.5
20260505195908 83 189 14.0 16.0 0.00 0.00 0.00 67 1006.1
20260505195405 83 205 14.0 15.0 0.00 0.00 0.00 67 1006.4
20260505194903 83 226 13.0 18.0 0.00 0.00 0.00 67 1006.5